Temperature
23 22 22 22 21 20 21 22 22 23 22 23 23 22 21 20 19 18 18 17 17 16 16 16 15 15 14 14 13 13 12 12 11 11 10 10 10 10 10 10 10 10 10 10
22 22 22 22 22 21 21 21 21 22 22 23 22 21 20 20 19 18 18 18 17 17 16 16 16 15 14 14 13 13 12 12 11 11 10 10 10 10 10 10 10 10 10 10
23 22 22 23 24 22 22 22 22 22 23 23 22 21 21 20 19 19 18 18 17 17 17 16 16 15 15 14 14 13 12 12 11 11 11 10 10 10 10 10 10 10 10 10
23 23 22 25 23 23 22 23 23 22 23 22 21 20 19 19 19 19 18 18 17 17 17 16 16 15 15 14 14 13 13 12 12 11 11 11 10 10 10 10 10 10 10 10
23 23 23 23 22 22 22 23 23 23 23 22 20 20 22 20 19 19 18 18 17 17 17 16 16 15 15 15 14 14 13 13 12 12 11 11 10 10 10 10 10 10 10 10
22 22 23 24 23 22 23 23 23 23 23 22 21 24 23 20 19 19 18 18 17 17 17 16 16 16 15 15 15 14 13 13 12 12 12 11 11 11 11 10 10 10 10 10
22 23 24 24 21 22 23 24 23 22 22 21 22 23 21 19 19 19 19 18 18 17 17 16 16 16 15 15 15 14 14 14 13 13 12 12 11 11 11 11 10 10 10 10
22 22 23 21 21 23 24 22 21 21 21 20 20 19 19 19 19 19 19 18 18 17 17 17 16 16 16 16 15 15 15 14 14 13 13 12 12 12 11 11 11 10 10 10
24 24 20 18 20 18 18 20 20 20 19 19 19 19 18 18 19 19 19 18 18 18 17 17 17 17 16 16 15 15 15 15 14 14 13 13 13 12 12 11 11 11 11 10
22 22 19 17 16 16 16 17 18 18 18 18 18 18 18 18 18 18 18 18 18 18 17 17 17 17 17 16 16 15 15 15 15 14 14 13 13 13 12 12 11 11 11 11
23 21 18 16 15 15 15 16 17 17 17 17 18 18 17 17 18 18 18 18 18 18 18 17 17 17 16 16 16 16 15 15 15 14 14 14 14 14 13 13 12 12 11 11
24 22 21 19 15 14 15 15 16 16 16 17 17 17 17 17 17 17 17 17 17 17 17 17 16 16 16 16 16 16 15 15 15 15 15 14 14 14 14 14 13 13 12 12
20 17 17 15 14 14 14 14 15 15 15 15 16 16 16 16 16 16 16 16 16 16 16 16 16 16 16 16 16 16 15 15 15 15 15 15 14 14 14 14 14 13 13 12
15 15 14 14 13 13 13 13 13 14 14 14 14 15 15 14 15 15 15 15 14 14 15 15 15 15 15 15 15 15 15 15 15 15 15 15 14 14 14 14 13 13 13 13
14 15 14 13 12 12 12 12 12 12 12 13 13 13 13 13 13 13 13 13 13 13 13 13 13 14 14 14 14 14 14 14 14 14 15 15 14 14 14 14 14 13 13 13
13 12 12 12 12 11 11 11 12 11 11 11 12 12 12 12 12 12 12 12 11 11 11 11 11 12 12 12 13 13 13 13 14 14 14 14 14 14 14 14 14 14 13 13
13 11 11 11 11 11 11 11 11 11 10 10 10 10 10 10 10 10 10 10 9 9 10 10 10 10 10 11 11 11 12 12 12 13 13 13 13 13 13 13 13 14 14 14
15 14 13 12 11 10 10 10 10 9 9 9 9 9 9 9 9 8 8 8 8 8 9 9 9 9 9 9 10 10 10 10 10 10 11 11 11 12 12 12 13 13 13 13
11 11 11 10 10 10 9 9 9 8 8 8 8 8 8 8 8 7 7 7 7 7 7 7 8 7 7 8 8 8 8 8 9 9 9 9 10 10 11 11 12 12 12 13
10 9 9 9 9 9 8 8 8 7 7 7 7 7 7 7 7 6 6 6 6 6 6 6 6 6 6 7 7 7 7 7 7 7 7 8 8 8 9 10 10 11 11 11
8 8 8 8 8 7 7 7 7 7 7 7 7 6 6 6 6 6 6 5 5 6 5 5 5 5 5 6 6 6 6 6 6 6 6 6 6 7 7 8 8 9 9 10
8 7 7 7 7 7 6 6 6 6 6 6 6 6 5 5 5 5 5 5 5 5 5 4 4 5 5 5 5 5 5 5 5 5 5 5 5 5 5 6 6 7 7 8
7 7 7 7 7 6 6 6 6 6 6 6 5 5 5 5 5 5 5 5 5 5 4 4 4 5 5 4 4 4 4 4 4 4 4 4 4 4 4 4 5 5 5 6
7 7 6 6 6 6 6 6 5 5 5 5 5 5 5 5 5 5 4 5 5 5 4 4 4 4 4 4 4 4 4 4 4 4 4 4 3 3 4 4 4 4 4 4
6 6 6 6 6 6 6 6 5 5 5 5 5 5 5 5 5 4 4 4 5 4 4 4 4 4 4 4 4 4 4 4 3 3 3 3 3 3 3 3 3 3 3 3
6 6 6 6 6 6 6 5 5 5 5 5 5 5 5 5 5 4 4 4 4 4 4 4 4 4 4 4 3 3 3 3 3 3 3 3 3 3 2 2 2 2 2 2
6 6 5 5 5 6 6 5 5 5 5 5 5 5 5 4 4 4 4 4 4 4 4 4 4 3 3 3 3 3 3 3 3 3 3 2 2 2 2 2 2 2 2 2
Wind_Speed
2 2 4 6 8 11 12 8 6 6 9 11 9 7 6 4 5 7 9 9 8 7 6 6 5 5 5 5 4 5 5 5 5 5 6 6 7 7 8 8 8 9 9 8
6 4 6 7 9 11 11 9 10 11 10 6 4 5 5 5 6 8 9 9 8 8 7 6 6 5 4 4 4 4 5 5 4 5 5 6 7 7 8 8 8 9 9 8
6 4 5 9 11 13 8 9 7 6 4 4 6 6 6 5 6 7 8 8 8 8 7 6 5 4 4 4 3 4 5 4 4 4 5 6 6 7 7 7 8 8 9 8
4 5 6 2 4 7 8 7 9 9 8 7 8 7 7 7 7 7 7 8 8 7 7 6 5 5 4 4 4 4 4 4 4 4 5 5 6 7 8 8 8 8 8 8
4 5 5 3 5 6 6 4 5 6 5 4 4 5 2 0 4 6 6 6 6 6 6 6 5 5 5 5 5 5 5 5 5 5 5 6 6 7 7 7 8 8 8 8
5 5 5 5 7 6 5 5 4 4 2 2 3 2 3 4 3 3 4 5 6 6 6 6 6 5 6 6 6 6 6 6 5 5 6 6 7 7 7 7 7 7 7 7
8 6 4 4 7 7 6 4 4 3 2 2 2 4 4 4 4 3 3 4 6 6 7 7 6 7 8 8 7 6 5 6 6 6 7 7 7 7 7 7 7 7 7 6
7 7 5 7 9 7 2 4 2 2 1 2 4 4 4 4 3 2 2 3 5 6 7 7 7 8 9 9 8 7 6 7 8 8 7 7 7 8 8 7 8 7 7 6
7 3 4 4 4 1 1 2 2 2 2 3 3 3 3 3 3 2 2 3 4 6 7 7 7 8 10 10 8 7 8 9 9 9 8 8 8 8 8 7 7 7 6 6
6 6 5 4 3 2 3 5 4 3 2 2 1 2 3 3 3 3 3 3 3 5 6 7 7 8 10 10 8 9 10 10 10 10 10 9 7 7 7 7 7 7 6 6
7 5 6 6 5 3 3 3 3 3 3 2 2 3 4 4 5 5 5 4 3 4 5 7 7 7 8 8 9 11 12 11 11 10 10 9 9 8 9 8 7 7 7 6
8 10 9 8 8 6 6 5 5 6 6 6 5 5 6 6 7 6 7 6 5 5 6 6 6 7 7 7 8 10 11 11 10 9 8 9 9 9 11 12 9 10 11 10
3 6 6 9 9 8 7 7 6 6 7 7 7 7 7 7 7 8 8 9 8 8 8 8 8 8 9 9 8 10 11 11 10 9 9 9 9 9 9 9 13 14 14 14
9 10 9 10 9 9 9 8 8 8 8 8 8 8 8 8 9 10 10 10 9 9 10 10 10 11 12 11 10 10 11 10 10 10 10 10 10 10 9 9 8 8 11 15
12 9 8 10 12 11 10 10 10 9 9 9 8 9 9 9 10 10 10 10 10 11 12 12 12 13 14 13 12 11 10 8 9 9 9 10 10 10 10 11 10 9 8 8
14 11 13 15 14 13 12 11 10 9 8 8 8 8 8 8 9 9 10 10 11 12 12 12 13 14 14 14 14 11 9 10 10 10 10 10 10 10 10 10 11 10 10 9
19 17 17 17 16 14 12 11 10 10 9 8 8 7 7 8 9 9 10 10 10 10 12 13 14 14 14 15 15 11 10 10 10 9 9 9 9 10 10 11 11 11 11 10
16 16 17 18 17 15 13 12 10 10 9 8 8 8 8 8 9 8 8 9 9 10 12 13 14 14 14 15 14 11 11 11 10 10 9 9 10 10 10 11 11 13 11 10
15 16 17 16 15 14 13 12 11 10 9 8 8 8 8 8 8 7 7 9 10 11 12 14 15 14 15 17 16 11 12 12 12 11 10 10 10 10 10 10 11 11 11 11
17 18 18 16 15 14 13 12 11 10 8 8 8 8 8 7 7 6 7 8 8 8 10 12 12 13 14 15 16 12 13 13 13 12 11 11 11 11 11 11 11 11 11 11
19 19 18 16 14 13 12 12 11 10 9 7 7 7 7 6 6 5 6 6 7 9 9 9 9 11 12 13 13 11 12 13 13 12 12 12 12 12 12 12 12 12 11 11
18 17 17 15 14 13 11 10 10 9 8 7 6 6 5 4 4 4 4 4 5 8 8 7 8 12 15 14 10 11 12 12 12 12 12 12 12 13 13 13 13 13 13 13
16 15 15 15 14 13 11 10 9 8 7 6 5 4 2 1 1 2 3 4 5 9 8 7 10 14 16 11 10 10 11 12 12 12 12 12 12 12 12 13 13 13 13 14
15 14 14 13 12 12 11 10 8 6 6 5 4 3 2 2 2 2 3 5 7 9 8 8 11 14 14 9 9 10 11 11 11 12 12 11 11 12 12 12 13 13 14 16
14 13 13 13 11 9 10 9 8 7 6 5 5 5 4 4 4 5 6 7 8 10 9 10 12 13 11 10 10 11 11 11 11 12 12 12 12 12 12 12 13 13 13 13
13 11 10 11 9 8 8 7 6 6 6 5 5 5 5 5 6 7 7 8 10 10 10 9 10 10 10 10 11 12 12 12 12 11 12 12 13 13 12 13 15 13 13 13
12 10 9 8 7 7 7 7 7 6 6 6 5 5 5 5 6 7 8 8 8 9 9 9 9 9 10 10 11 12 12 12 12 12 13 13 13 13 13 15 13 13 13 14
Wind_Direction
202 141 189 209 199 201 218 243 265 287 293 302 315 315 303 272 241 229 228 230 235 244 254 261 266 270 273 275 274 272 280 291 308 319 327 329 331 331 333 334 332 335 333 333
197 201 222 235 224 214 227 244 256 275 287 292 306 293 283 263 239 232 230 230 233 240 247 256 263 270 274 271 271 270 280 291 304 309 320 324 329 333 333 332 333 335 332 332
209 183 223 244 223 207 212 218 234 256 292 323 302 299 294 281 251 242 237 232 232 236 240 249 260 269 273 275 274 269 278 284 290 303 315 322 327 332 331 330 334 333 332 332
219 199 230 120 111 187 211 229 229 254 282 297 298 298 284 271 262 252 239 231 228 230 231 238 244 247 256 257 262 269 275 276 279 289 303 312 318 323 326 331 333 329 329 330
223 225 239 192 180 182 198 198 207 237 270 298 305 276 223 277 261 259 246 231 226 227 228 234 239 244 247 252 257 263 268 272 271 275 290 301 309 315 322 324 326 328 329 326
221 233 227 159 145 169 202 188 165 213 269 298 280 299 47 27 326 276 245 228 223 220 227 234 235 236 247 257 261 263 264 266 267 270 278 287 298 306 312 312 315 319 321 321
226 236 240 134 144 168 203 155 137 192 247 253 274 343 355 341 323 290 251 230 223 224 230 237 235 233 246 257 263 266 261 260 260 261 266 277 287 292 296 303 308 314 318 319
207 220 214 142 167 195 100 100 152 199 242 273 293 313 317 319 328 308 260 231 227 232 237 239 235 237 249 257 264 261 252 253 256 259 263 269 272 282 290 295 298 305 313 323
210 213 91 166 200 10 305 242 235 251 269 283 287 315 333 332 334 324 297 260 241 244 251 249 239 239 253 261 262 255 251 253 257 260 260 262 268 274 281 283 288 301 309 316
220 221 194 185 204 233 247 246 260 260 260 256 271 355 10 12 6 359 344 320 283 262 261 263 259 248 254 265 264 258 258 260 260 261 262 262 260 266 272 278 282 290 299 305
222 186 176 199 199 191 175 169 156 132 107 88 87 59 42 36 26 16 9 357 335 304 294 294 292 279 274 273 267 263 263 263 262 261 263 266 261 256 262 265 267 273 287 293
223 196 190 182 167 167 160 146 134 126 105 81 72 66 57 50 37 28 22 16 9 357 338 327 323 316 312 300 281 271 270 270 267 264 259 259 263 261 233 239 243 234 245 264
166 144 142 139 148 157 152 136 123 112 104 92 75 68 65 60 47 39 34 27 20 13 5 357 353 348 343 331 306 284 275 274 272 267 263 258 258 262 268 243 228 236 237 238
153 144 149 162 160 157 148 136 123 110 98 88 81 73 69 64 54 44 34 27 26 25 20 13 8 1 352 340 325 304 290 280 273 269 265 263 260 258 260 266 265 253 229 225
182 186 167 153 150 152 151 147 135 118 105 91 80 73 67 63 55 46 36 30 34 33 25 18 12 3 354 345 335 322 309 299 291 281 270 265 262 258 256 256 258 262 258 225
170 163 154 155 155 154 156 152 138 123 111 98 86 77 72 69 62 52 41 34 34 31 22 15 9 360 353 349 343 333 322 312 303 292 281 271 264 259 256 254 253 254 254 253
162 167 169 164 159 156 152 145 134 125 115 103 92 85 79 73 64 51 41 36 37 33 22 14 5 356 355 354 347 339 333 328 317 302 294 286 278 270 265 261 258 256 254 248
180 172 168 162 155 148 143 138 131 123 114 107 101 90 77 67 59 49 40 35 35 33 23 13 3 356 0 1 352 345 342 339 335 327 317 308 300 289 280 274 269 266 264 249
161 154 151 149 146 143 140 137 131 124 119 114 104 91 81 70 60 52 45 41 32 23 13 6 356 1 5 5 356 351 352 348 345 341 335 327 318 309 299 290 283 278 273 267
148 144 142 141 142 140 138 136 132 126 120 116 108 99 87 73 61 55 53 52 37 14 2 358 359 6 4 3 356 358 358 356 353 350 348 343 337 330 322 314 305 297 289 280
146 145 144 143 141 141 140 140 136 130 124 118 110 103 93 81 66 54 45 43 28 6 356 353 2 5 1 352 350 359 359 358 357 356 353 349 346 341 337 332 325 317 309 299
149 148 147 146 145 145 145 142 138 134 131 126 121 117 108 90 68 51 46 22 360 350 345 352 357 356 348 341 351 356 356 357 356 355 353 351 348 345 343 341 335 331 325 318
151 152 152 153 152 148 147 148 147 146 146 147 147 143 129 82 14 354 358 357 343 339 332 337 338 336 333 336 345 347 349 351 351 350 349 347 345 343 341 339 337 335 331 328
153 155 154 153 153 155 158 159 160 162 167 173 182 197 222 252 282 299 310 308 307 311 312 315 314 321 321 326 333 336 338 340 341 341 340 339 339 338 337 336 334 333 330 327
157 157 157 161 166 169 167 167 173 179 190 199 207 217 232 250 270 290 297 300 303 300 304 308 310 311 312 321 325 326 326 327 327 325 325 328 328 328 328 328 328 327 325 324
164 167 171 178 178 176 175 180 188 192 199 208 218 227 236 245 258 268 277 286 291 293 296 302 308 307 313 318 318 316 315 316 317 317 318 319 319 320 319 320 320 320 318 317
172 173 177 183 184 188 189 193 200 203 208 217 229 238 247 256 264 272 279 284 291 294 297 301 306 310 312 312 311 311 312 313 313 314 313 313 312 311 311 312 313 312 311 309
Height
1527 1529 1530 1531 1534 1539 1538 1533 1533 1527 1528 1524 1522 1524 1524 1524 1525 1526 1527 1528 1528 1529 1529 1528 1528 1527 1525 1524 1522 1520 1518 1516 1514 1512 1509 1506 1503 1500 1497 1494 1491 1489 1486 1483
1528 1529 1530 1530 1529 1532 1534 1532 1531 1529 1527 1520 1522 1523 1522 1522 1522 1523 1523 1524 1525 1526 1526 1526 1526 1525 1524 1522 1520 1518 1517 1515 1512 1510 1507 1505 1502 1499 1496 1493 1490 1487 1484 1481
1524 1528 1530 1528 1519 1525 1526 1525 1526 1525 1521 1519 1520 1520 1520 1519 1519 1520 1520 1521 1522 1523 1523 1523 1523 1523 1521 1520 1518 1517 1515 1513 1511 1509 1506 1504 1501 1498 1495 1492 1489 1486 1483 1480
1523 1528 1534 1515 1514 1517 1520 1520 1520 1520 1519 1519 1519 1518 1518 1517 1517 1517 1517 1518 1519 1520 1521 1521 1521 1520 1519 1518 1517 1515 1513 1511 1509 1507 1505 1503 1500 1497 1494 1492 1488 1485 1482 1479
1522 1524 1519 1515 1515 1517 1518 1516 1515 1517 1517 1517 1517 1516 1515 1515 1514 1514 1515 1515 1516 1517 1518 1519 1519 1518 1518 1517 1515 1514 1512 1510 1508 1506 1504 1501 1499 1497 1494 1490 1487 1484 1481 1477
1523 1524 1521 1510 1511 1514 1516 1516 1514 1515 1515 1516 1516 1511 1512 1514 1513 1512 1512 1513 1514 1514 1515 1516 1516 1516 1515 1515 1514 1512 1510 1508 1507 1504 1502 1500 1498 1495 1492 1489 1486 1483 1480 1476
1520 1519 1509 1506 1511 1515 1518 1513 1513 1514 1514 1514 1513 1512 1514 1512 1511 1511 1510 1511 1511 1512 1513 1513 1514 1513 1513 1512 1512 1510 1508 1506 1504 1502 1500 1498 1496 1493 1491 1488 1485 1482 1479 1476
1514 1517 1511 1508 1510 1509 1508 1509 1511 1512 1513 1513 1513 1512 1511 1511 1510 1509 1509 1509 1509 1510 1510 1510 1510 1510 1510 1509 1509 1507 1505 1504 1502 1500 1498 1496 1494 1491 1489 1487 1484 1482 1479 1476
1502 1503 1504 1506 1506 1507 1508 1509 1510 1511 1511 1511 1511 1511 1510 1509 1508 1508 1507 1507 1507 1507 1508 1508 1507 1507 1507 1506 1505 1504 1502 1501 1499 1498 1496 1494 1491 1489 1487 1485 1483 1480 1478 1475
1500 1500 1503 1505 1505 1505 1506 1507 1508 1508 1509 1509 1509 1509 1508 1507 1507 1506 1506 1505 1505 1505 1505 1505 1505 1504 1503 1503 1501 1500 1499 1498 1496 1495 1493 1491 1489 1487 1485 1483 1481 1479 1476 1474
1495 1498 1502 1502 1503 1503 1503 1504 1505 1506 1506 1507 1507 1507 1507 1506 1505 1504 1504 1503 1502 1502 1502 1501 1501 1500 1499 1498 1497 1496 1495 1494 1493 1491 1490 1488 1486 1484 1482 1480 1478 1476 1474 1472
1488 1489 1493 1496 1498 1500 1502 1503 1504 1505 1505 1505 1505 1505 1505 1504 1503 1503 1502 1501 1500 1499 1499 1498 1497 1496 1495 1493 1492 1491 1490 1490 1488 1487 1485 1483 1482 1480 1478 1476 1474 1472 1471 1469
1487 1488 1491 1493 1495 1497 1500 1501 1502 1503 1504 1504 1504 1504 1503 1503 1502 1501 1500 1499 1498 1497 1496 1494 1493 1492 1490 1488 1487 1486 1485 1484 1483 1481 1480 1478 1477 1475 1474 1472 1470 1468 1467 1465
1484 1486 1489 1491 1493 1495 1498 1499 1500 1501 1502 1502 1502 1502 1502 1502 1501 1500 1499 1497 1496 1495 1493 1492 1490 1488 1486 1484 1482 1480 1479 1478 1476 1475 1474 1472 1471 1470 1469 1467 1466 1464 1462 1461
1481 1484 1486 1487 1490 1493 1495 1498 1500 1500 1501 1501 1501 1501 1501 1501 1500 1499 1498 1496 1495 1493 1491 1489 1487 1485 1482 1480 1478 1476 1474 1472 1470 1468 1467 1466 1465 1464 1463 1462 1460 1459 1458 1456
1476 1479 1482 1484 1487 1490 1493 1496 1498 1499 1499 1500 1500 1500 1500 1499 1499 1498 1497 1495 1494 1492 1489 1487 1485 1482 1479 1476 1473 1471 1469 1467 1464 1462 1461 1460 1458 1457 1456 1456 1455 1454 1453 1452
1469 1473 1477 1480 1484 1487 1491 1493 1495 1497 1498 1498 1499 1499 1499 1499 1498 1497 1496 1494 1493 1491 1489 1486 1483 1480 1477 1474 1471 1468 1465 1462 1459 1457 1455 1454 1453 1452 1451 1450 1448 1448 1447 1446
1465 1468 1471 1475 1479 1484 1487 1491 1493 1495 1496 1496 1497 1498 1498 1498 1497 1496 1495 1494 1493 1491 1488 1485 1482 1479 1476 1472 1469 1465 1462 1459 1456 1453 1451 1449 1447 1446 1445 1443 1442 1442 1441 1440
1461 1465 1470 1474 1478 1482 1485 1488 1491 1493 1494 1495 1496 1496 1496 1496 1496 1495 1495 1493 1491 1489 1487 1484 1481 1478 1475 1471 1467 1464 1461 1457 1454 1451 1448 1445 1443 1441 1439 1438 1437 1436 1435 1434
1459 1464 1468 1473 1477 1481 1484 1487 1489 1491 1493 1494 1495 1496 1496 1495 1495 1495 1494 1493 1491 1489 1487 1483 1481 1478 1475 1471 1466 1463 1460 1456 1453 1449 1446 1443 1440 1438 1436 1434 1432 1430 1429 1428
1458 1463 1467 1472 1476 1480 1483 1486 1488 1490 1491 1493 1494 1495 1495 1495 1495 1494 1494 1493 1491 1488 1486 1483 1481 1478 1474 1470 1467 1464 1460 1456 1452 1449 1445 1442 1438 1435 1433 1430 1428 1426 1424 1422
1458 1463 1468 1472 1475 1479 1482 1485 1487 1489 1490 1492 1493 1494 1494 1494 1494 1494 1493 1491 1489 1487 1485 1483 1480 1477 1473 1469 1467 1463 1460 1456 1452 1449 1445 1441 1437 1434 1430 1427 1424 1422 1419 1417
1460 1464 1468 1472 1475 1478 1481 1484 1486 1488 1490 1491 1492 1493 1493 1493 1493 1493 1492 1490 1488 1486 1484 1482 1479 1475 1471 1469 1466 1463 1459 1456 1452 1448 1444 1440 1437 1433 1429 1425 1421 1418 1414 1411
1460 1464 1468 1472 1475 1478 1481 1483 1485 1487 1488 1489 1490 1490 1491 1491 1491 1490 1489 1488 1486 1484 1482 1479 1476 1473 1470 1467 1464 1461 1458 1454 1450 1447 1443 1439 1435 1431 1427 1422 1418 1414 1410 1407
1461 1464 1468 1471 1474 1477 1480 1482 1484 1485 1486 1488 1488 1489 1489 1489 1488 1488 1487 1485 1483 1481 1479 1476 1473 1470 1467 1465 1461 1458 1455 1452 1448 1444 1440 1436 1432 1428 1424 1419 1415 1411 1406 1402
1460 1464 1467 1470 1473 1475 1478 1480 1482 1483 1484 1486 1486 1486 1486 1486 1485 1484 1483 1481 1480 1477 1475 1472 1469 1466 1464 1460 1457 1454 1451 1448 1444 1441 1437 1433 1429 1425 1420 1416 1411 1406 1402 1397
1460 1463 1465 1468 1470 1473 1475 1477 1479 1480 1481 1482 1483 1484 1483 1483 1482 1481 1479 1478 1476 1473 1471 1468 1465 1462 1459 1455 1452 1449 1446 1443 1440 1436 1432 1428 1424 1420 1415 1411 1406 1401 1396 1391